Location: Balaclava NSW 2575, Australia
(34.4510°S, 150.4953°E)
Time: 18:40:16
(UTC+10:00)

Vanguard 2 - Pass Details

Date: 15 June 2021
Orbit: 552 x 2937 km, 32.9° (Epoch: 24 July)

Event Time Altitude Azimuth Distance (km) Brightness Sun altitude
Rises 11:27:59 0° 259° (W) 5,636 11.8 31.8°
Reaches altitude 10° 11:31:16 10° 261° (W) 4,889 11.6 31.9°
Maximum altitude 11:46:21 69° 340° (NNW) 2,992 11.5 32.2°
Drops below altitude 10° 12:04:06 10° 58° (ENE) 5,624 12.4 32.2°
Sets 12:08:12 0° 60° (ENE) 6,487 12.6 32.2°
